Location: Alpine
(43.1636°N, 111.0180°W)
Time: 05:34:53
(UTC+00:00)

Tiros 1 despin weight - Pass Details

Date: 02 June 2022
Orbit: 591 x 639 km, 48.2° (Epoch: 30 June)

Event Time Altitude Azimuth Distance (km) Brightness Sun altitude
Rises 22:21:14 0° 226° (SW) 2,905 ? 47.6°
Reaches altitude 10° 22:23:36 10° 222° (SW) 1,994 ? 47.2°
Maximum altitude 22:28:03 51° 147° (SSE) 783 ? 46.4°
Drops below altitude 10° 22:32:26 10° 71° (ENE) 1,972 ? 45.6°
Sets 22:34:46 0° 67° (ENE) 2,871 ? 45.2°
